| time (UTC) | temp F | wind direction | speed MPH | gust MPH | rain 1hr in | rain 24hr in | rain mn in | humidity % | barometer mb |
| 20260507164025 | 63 | 103 | 1.0 | 2.0 | 0.00 | 0.22 | 0.22 | 92 | 1015.4 |
| 20260507163522 | 64 | 112 | 2.0 | 2.0 | 0.00 | 0.22 | 0.22 | 92 | 1015.3 |
| 20260507163020 | 64 | 107 | 0.0 | 0.0 | 0.00 | 0.22 | 0.22 | 91 | 1015.0 |
| 20260507162515 | 63 | 110 | 1.0 | 1.0 | 0.00 | 0.22 | 0.22 | 92 | 1015.2 |
| 20260507162012 | 63 | 97 | 0.0 | 0.0 | 0.00 | 0.22 | 0.22 | 94 | 1015.0 |
| 20260507161508 | 63 | 117 | 2.0 | 2.0 | 0.00 | 0.22 | 0.22 | 94 | 1015.0 |
| 20260507161005 | 63 | 117 | 3.0 | 3.0 | 0.00 | 0.22 | 0.22 | 93 | 1014.8 |
| 20260507160501 | 63 | 84 | 0.0 | 1.0 | 0.00 | 0.22 | 0.22 | 93 | 1014.6 |
| 20260507155956 | 64 | 107 | 0.0 | 0.0 | 0.00 | 0.22 | 0.22 | 93 | 1014.8 |
| 20260507155453 | 64 | 95 | 0.0 | 0.0 | 0.00 | 0.22 | 0.22 | 92 | 1014.8 |
| 20260507154950 | 65 | 105 | 0.0 | 1.0 | 0.00 | 0.22 | 0.22 | 91 | 1014.8 |
| 20260507154447 | 65 | 113 | 2.0 | 2.0 | 0.00 | 0.22 | 0.22 | 91 | 1014.5 |
| 20260507153944 | 65 | 96 | 1.0 | 1.0 | 0.00 | 0.22 | 0.22 | 93 | 1014.4 |
| 20260507153441 | 65 | 113 | 1.0 | 1.0 | 0.00 | 0.22 | 0.22 | 93 | 1014.4 |
| 20260507152937 | 65 | 99 | 0.0 | 0.0 | 0.00 | 0.22 | 0.22 | 94 | 1014.0 |
| 20260507152433 | 65 | 110 | 1.0 | 2.0 | 0.00 | 0.22 | 0.22 | 94 | 1014.2 |
| 20260507151929 | 65 | 105 | 1.0 | 1.0 | 0.00 | 0.22 | 0.22 | 96 | 1014.2 |
| 20260507151426 | 65 | 110 | 0.0 | 1.0 | 0.00 | 0.22 | 0.22 | 99 | 1014.1 |
| 20260507150923 | 64 | 99 | 0.0 | 0.0 | 0.00 | 0.22 | 0.22 | 99 | 1014.1 |
| 20260507150420 | 64 | 105 | 1.0 | 1.0 | 0.00 | 0.22 | 0.22 | 99 | 1014.2 |
| 20260507145916 | 64 | 105 | 1.0 | 1.0 | 0.00 | 0.22 | 0.22 | 99 | 1014.0 |
| 20260507145412 | 64 | 107 | 0.0 | 0.0 | 0.00 | 0.22 | 0.22 | 99 | 1014.4 |
| 20260507144909 | 63 | 132 | 0.0 | 0.0 | 0.00 | 0.22 | 0.22 | 99 | 1014.3 |
| 20260507144406 | 63 | 107 | 0.0 | 0.0 | 0.00 | 0.22 | 0.22 | 99 | 1014.2 |
| 20260507143903 | 62 | 110 | 0.0 | 0.0 | 0.00 | 0.22 | 0.22 | 99 | 1014.1 |
| 20260507143400 | 62 | 108 | 0.0 | 0.0 | 0.00 | 0.22 | 0.22 | 99 | 1014.2 |
| 20260507142857 | 62 | 112 | 0.0 | 0.0 | 0.00 | 0.22 | 0.22 | 99 | 1014.2 |
| 20260507142353 | 61 | 69 | 1.0 | 1.0 | 0.00 | 0.22 | 0.22 | 99 | 1014.3 |
| 20260507141850 | 61 | 102 | 0.0 | 0.0 | 0.00 | 0.22 | 0.22 | 99 | 1014.3 |
| 20260507141346 | 61 | 109 | 0.0 | 1.0 | 0.00 | 0.22 | 0.22 | 99 | 1014.3 |
| 20260507140843 | 61 | 105 | 0.0 | 0.0 | 0.00 | 0.22 | 0.22 | 99 | 1014.0 |
| 20260507140339 | 61 | 121 | 0.0 | 0.0 | 0.00 | 0.22 | 0.22 | 99 | 1013.9 |
| 20260507135838 | 61 | 100 | 1.0 | 1.0 | 0.00 | 0.22 | 0.22 | 99 | 1013.6 |
| 20260507135334 | 61 | 94 | 0.0 | 0.0 | 0.00 | 0.22 | 0.22 | 99 | 1013.8 |
| 20260507134832 | 61 | 116 | 0.0 | 1.0 | 0.00 | 0.22 | 0.22 | 99 | 1014.0 |
| 20260507134327 | 61 | 108 | 0.0 | 0.0 | 0.00 | 0.22 | 0.22 | 99 | 1013.9 |
| 20260507133823 | 60 | 99 | 0.0 | 1.0 | 0.00 | 0.22 | 0.22 | 99 | 1013.8 |
| 20260507133319 | 60 | 104 | 0.0 | 0.0 | 0.00 | 0.22 | 0.22 | 99 | 1013.6 |
| 20260507132818 | 61 | 105 | 0.0 | 0.0 | 0.00 | 0.22 | 0.22 | 99 | 1013.5 |
| 20260507132314 | 61 | 109 | 0.0 | 0.0 | 0.00 | 0.22 | 0.22 | 99 | 1013.8 |
| 20260507131811 | 60 | 107 | 0.0 | 0.0 | 0.00 | 0.22 | 0.22 | 99 | 1013.8 |
| 20260507131308 | 60 | 110 | 0.0 | 0.0 | 0.00 | 0.22 | 0.22 | 99 | 1013.4 |
| 20260507130804 | 60 | 105 | 1.0 | 1.0 | 0.00 | 0.22 | 0.22 | 99 | 1013.4 |
| 20260507130302 | 60 | 103 | 0.0 | 0.0 | 0.00 | 0.22 | 0.22 | 99 | 1013.4 |
| 20260507125801 | 60 | 82 | 0.0 | 1.0 | 0.00 | 0.22 | 0.22 | 99 | 1013.5 |
| 20260507125258 | 60 | 116 | 0.0 | 0.0 | 0.05 | 0.22 | 0.22 | 99 | 1013.4 |
| 20260507124755 | 60 | 107 | 1.0 | 1.0 | 0.05 | 0.22 | 0.22 | 99 | 1013.3 |
| 20260507124251 | 61 | 104 | 1.0 | 1.0 | 0.00 | 0.21 | 0.21 | 99 | 1013.1 |
| 20260507123750 | 61 | 110 | 0.0 | 1.0 | 0.00 | 0.21 | 0.21 | 99 | 1012.9 |
| 20260507123247 | 61 | 105 | 0.0 | 0.0 | 0.00 | 0.21 | 0.21 | 99 | 1012.8 |
| 20260507122742 | 61 | 111 | 1.0 | 1.0 | 0.00 | 0.21 | 0.21 | 99 | 1012.5 |
| 20260507122238 | 60 | 113 | 1.0 | 1.0 | 0.00 | 0.21 | 0.21 | 99 | 1012.3 |
| 20260507121734 | 60 | 108 | 0.0 | 1.0 | 0.00 | 0.21 | 0.21 | 99 | 1012.3 |
| 20260507121230 | 60 | 120 | 0.0 | 0.0 | 0.00 | 0.21 | 0.21 | 99 | 1012.1 |
| 20260507120726 | 60 | 106 | 1.0 | 2.0 | 0.00 | 0.21 | 0.21 | 99 | 1012.1 |
| 20260507120224 | 60 | 109 | 0.0 | 0.0 | 0.00 | 0.21 | 0.21 | 99 | 1012.2 |
| 20260507115719 | 60 | 108 | 0.0 | 0.0 | 0.00 | 0.21 | 0.21 | 99 | 1012.1 |
| 20260507115216 | 60 | 111 | 0.0 | 0.0 | 0.00 | 0.21 | 0.21 | 99 | 1012.3 |
| 20260507114711 | 60 | 107 | 0.0 | 0.0 | 0.00 | 0.21 | 0.21 | 99 | 1012.3 |
| 20260507114209 | 60 | 108 | 0.0 | 0.0 | 0.00 | 0.21 | 0.21 | 99 | 1012.4 |
| 20260507113706 | 60 | 101 | 0.0 | 1.0 | 0.00 | 0.21 | 0.21 | 99 | 1012.2 |
| 20260507113203 | 60 | 106 | 0.0 | 0.0 | 0.00 | 0.21 | 0.21 | 99 | 1012.0 |
| 20260507112701 | 60 | 99 | 0.0 | 0.0 | 0.00 | 0.21 | 0.21 | 99 | 1011.7 |
| 20260507112157 | 60 | 142 | 0.0 | 0.0 | 0.00 | 0.21 | 0.21 | 99 | 1011.7 |
| 20260507111655 | 60 | 111 | 0.0 | 0.0 | 0.00 | 0.21 | 0.21 | 99 | 1012.0 |
| 20260507111152 | 60 | 101 | 2.0 | 3.0 | 0.00 | 0.21 | 0.21 | 99 | 1012.0 |
| 20260507110647 | 60 | 100 | 0.0 | 0.0 | 0.00 | 0.21 | 0.21 | 99 | 1012.2 |
| 20260507110144 | 61 | 99 | 1.0 | 1.0 | 0.00 | 0.21 | 0.21 | 99 | 1012.0 |
| 20260507105641 | 61 | 108 | 1.0 | 1.0 | 0.00 | 0.21 | 0.21 | 99 | 1011.9 |
| 20260507105137 | 62 | 124 | 2.0 | 2.0 | 0.00 | 0.21 | 0.21 | 99 | 1011.2 |
| 20260507104634 | 62 | 106 | 0.0 | 1.0 | 0.00 | 0.21 | 0.21 | 99 | 1011.3 |
| 20260507104131 | 63 | 110 | 0.0 | 0.0 | 0.00 | 0.21 | 0.21 | 99 | 1011.0 |
| 20260507103627 | 64 | 104 | 0.0 | 1.0 | 0.00 | 0.21 | 0.21 | 99 | 1011.2 |
| 20260507103124 | 64 | 101 | 1.0 | 2.0 | 0.00 | 0.21 | 0.21 | 99 | 1011.1 |
| 20260507102620 | 64 | 109 | 0.0 | 0.0 | 0.00 | 0.21 | 0.21 | 99 | 1010.9 |
| 20260507102116 | 64 | 124 | 0.0 | 1.0 | 0.00 | 0.21 | 0.21 | 99 | 1010.9 |
| 20260507101612 | 64 | 108 | 0.0 | 0.0 | 0.00 | 0.21 | 0.21 | 99 | 1010.3 |
| 20260507101109 | 63 | 119 | 0.0 | 0.0 | 0.00 | 0.21 | 0.21 | 99 | 1010.5 |
| 20260507100606 | 63 | 108 | 0.0 | 0.0 | 0.00 | 0.21 | 0.21 | 99 | 1010.4 |
| 20260507100104 | 64 | 118 | 0.0 | 0.0 | 0.00 | 0.21 | 0.21 | 99 | 1010.5 |
| 20260507095602 | 64 | 109 | 0.0 | 0.0 | 0.00 | 0.21 | 0.21 | 99 | 1010.6 |
| 20260507095058 | 64 | 111 | 0.0 | 0.0 | 0.00 | 0.21 | 0.21 | 99 | 1010.3 |
| 20260507094554 | 64 | 110 | 0.0 | 2.0 | 0.00 | 0.21 | 0.21 | 99 | 1010.5 |
| 20260507094051 | 64 | 110 | 0.0 | 0.0 | 0.00 | 0.21 | 0.21 | 99 | 1010.7 |
| 20260507093549 | 64 | 108 | 0.0 | 0.0 | 0.00 | 0.21 | 0.21 | 99 | 1010.6 |
| 20260507093047 | 64 | 111 | 0.0 | 0.0 | 0.00 | 0.21 | 0.21 | 99 | 1010.7 |
| 20260507092543 | 64 | 111 | 0.0 | 0.0 | 0.00 | 0.21 | 0.21 | 99 | 1010.6 |
| 20260507092040 | 64 | 141 | 0.0 | 1.0 | 0.00 | 0.21 | 0.21 | 99 | 1010.4 |
| 20260507091537 | 64 | 95 | 0.0 | 1.0 | 0.00 | 0.21 | 0.21 | 99 | 1010.5 |
| 20260507091033 | 64 | 103 | 2.0 | 3.0 | 0.00 | 0.21 | 0.21 | 99 | 1010.6 |
| 20260507090529 | 64 | 110 | 0.0 | 0.0 | 0.00 | 0.21 | 0.21 | 99 | 1010.4 |
| 20260507090026 | 64 | 108 | 0.0 | 0.0 | 0.00 | 0.21 | 0.21 | 99 | 1010.5 |
| 20260507085523 | 65 | 110 | 0.0 | 0.0 | 0.00 | 0.21 | 0.21 | 99 | 1010.7 |
| 20260507085020 | 65 | 109 | 0.0 | 0.0 | 0.00 | 0.21 | 0.21 | 99 | 1010.4 |
| 20260507084516 | 65 | 110 | 0.0 | 0.0 | 0.00 | 0.21 | 0.21 | 99 | 1010.4 |
| 20260507084014 | 65 | 110 | 0.0 | 0.0 | 0.00 | 0.21 | 0.21 | 99 | 1010.4 |
| 20260507083509 | 65 | 109 | 0.0 | 0.0 | 0.00 | 0.21 | 0.21 | 99 | 1010.1 |
| 20260507083007 | 65 | 108 | 0.0 | 0.0 | 0.00 | 0.21 | 0.21 | 99 | 1010.1 |
| 20260507082503 | 65 | 110 | 0.0 | 0.0 | 0.00 | 0.21 | 0.21 | 99 | 1010.0 |
| 20260507081959 | 65 | 104 | 0.0 | 0.0 | 0.00 | 0.21 | 0.21 | 99 | 1010.3 |
| 20260507081455 | 65 | 108 | 0.0 | 0.0 | 0.00 | 0.21 | 0.21 | 99 | 1010.1 |
| 20260507080952 | 65 | 109 | 0.0 | 0.0 | 0.00 | 0.21 | 0.21 | 99 | 1010.2 |
| 20260507080448 | 65 | 109 | 0.0 | 0.0 | 0.00 | 0.21 | 0.21 | 99 | 1009.9 |
| 20260507075944 | 66 | 109 | 0.0 | 0.0 | 0.00 | 0.21 | 0.21 | 99 | 1010.2 |
| 20260507075440 | 66 | 98 | 0.0 | 0.0 | 0.07 | 0.21 | 0.21 | 99 | 1010.1 |
| 20260507074937 | 66 | 107 | 0.0 | 0.0 | 0.12 | 0.21 | 0.21 | 99 | 1010.2 |
| 20260507074434 | 66 | 108 | 0.0 | 0.0 | 0.17 | 0.20 | 0.20 | 99 | 1010.3 |
| 20260507073932 | 66 | 107 | 0.0 | 0.0 | 0.19 | 0.19 | 0.19 | 99 | 1010.7 |
| 20260507073428 | 66 | 111 | 0.0 | 0.0 | 0.12 | 0.18 | 0.18 | 99 | 1010.7 |
| 20260507072925 | 66 | 105 | 0.0 | 0.0 | 0.05 | 0.16 | 0.16 | 99 | 1010.6 |
| 20260507072422 | 66 | 110 | 0.0 | 0.0 | 0.12 | 0.16 | 0.16 | 99 | 1010.3 |
| 20260507071920 | 66 | 85 | 1.0 | 1.0 | 0.19 | 0.15 | 0.15 | 99 | 1010.1 |
| 20260507071417 | 66 | 107 | 1.0 | 1.0 | 0.24 | 0.14 | 0.14 | 99 | 1008.5 |
| 20260507070913 | 66 | 113 | 0.0 | 0.0 | 0.17 | 0.13 | 0.13 | 99 | 1008.9 |
| 20260507070410 | 67 | 107 | 2.0 | 2.0 | 0.00 | 0.10 | 0.10 | 99 | 1009.8 |
| 20260507065907 | 67 | 117 | 0.0 | 0.0 | 0.00 | 0.10 | 0.10 | 99 | 1010.5 |
| 20260507065404 | 67 | 109 | 0.0 | 0.0 | 0.07 | 0.10 | 0.10 | 99 | 1011.1 |
| 20260507064901 | 67 | 112 | 0.0 | 0.0 | 0.12 | 0.10 | 0.10 | 99 | 1011.1 |
| 20260507064359 | 67 | 107 | 0.0 | 0.0 | 0.12 | 0.09 | 0.09 | 99 | 1011.2 |
| 20260507063857 | 67 | 109 | 0.0 | 0.0 | 0.12 | 0.08 | 0.08 | 99 | 1011.3 |
| 20260507063354 | 67 | 107 | 0.0 | 0.0 | 0.05 | 0.07 | 0.07 | 99 | 1011.1 |
| 20260507062850 | 67 | 112 | 0.0 | 0.0 | 0.07 | 0.06 | 0.06 | 99 | 1011.3 |
| 20260507062347 | 67 | 108 | 0.0 | 0.0 | 0.07 | 0.06 | 0.06 | 99 | 1011.4 |
| 20260507061845 | 67 | 109 | 0.0 | 0.0 | 0.00 | 0.05 | 0.05 | 99 | 1011.5 |
| 20260507061343 | 67 | 109 | 0.0 | 0.0 | 0.05 | 0.05 | 0.05 | 99 | 1011.5 |
| 20260507060841 | 67 | 106 | 0.0 | 0.0 | 0.05 | 0.05 | 0.05 | 99 | 1011.7 |
| 20260507060337 | 67 | 111 | 0.0 | 0.0 | 0.00 | 0.04 | 0.04 | 99 | 1011.6 |
| 20260507055834 | 67 | 110 | 0.0 | 0.0 | 0.07 | 0.04 | 0.04 | 99 | 1011.7 |
| 20260507055329 | 67 | 107 | 0.0 | 0.0 | 0.07 | 0.04 | 0.04 | 99 | 1011.8 |
| 20260507054826 | 67 | 104 | 0.0 | 0.0 | 0.05 | 0.03 | 0.03 | 99 | 1011.9 |
| 20260507054322 | 67 | 108 | 0.0 | 0.0 | 0.12 | 0.03 | 0.03 | 99 | 1011.8 |
| 20260507053820 | 67 | 107 | 2.0 | 2.0 | 0.14 | 0.02 | 0.02 | 99 | 1012.2 |
| 20260507053317 | 67 | 110 | 0.0 | 0.0 | 0.07 | 0.01 | 0.01 | 99 | 1011.9 |
| 20260507052816 | 67 | 109 | 1.0 | 1.0 | 0.00 | 0.00 | 0.00 | 99 | 1012.0 |
| 20260507052312 | 68 | 109 | 0.0 | 0.0 | 0.00 | 0.00 | 0.00 | 99 | 1012.1 |
| 20260507051810 | 67 | 110 | 0.0 | 0.0 | 0.00 | 0.00 | 0.00 | 99 | 1012.2 |
| 20260507051308 | 67 | 108 | 0.0 | 0.0 | 0.00 | 0.00 | 0.00 | 99 | 1011.9 |
| 20260507050804 | 67 | 109 | 0.0 | 0.0 | 0.00 | 0.00 | 0.00 | 99 | 1011.9 |
| 20260507050300 | 67 | 112 | 0.0 | 0.0 | 0.00 | 0.00 | 0.00 | 99 | 1011.5 |
| 20260507045757 | 67 | 110 | 0.0 | 0.0 | 0.00 | 1.25 | 1.25 | 99 | 1011.6 |
| 20260507045254 | 67 | 109 | 0.0 | 0.0 | 0.05 | 1.25 | 1.25 | 99 | 1011.7 |
| 20260507044751 | 67 | 110 | 0.0 | 0.0 | 0.05 | 1.25 | 1.25 | 99 | 1011.6 |
| 20260507044247 | 67 | 109 | 0.0 | 0.0 | 0.07 | 1.24 | 1.24 | 99 | 1011.7 |
| 20260507043744 | 67 | 108 | 0.0 | 0.0 | 0.07 | 1.24 | 1.24 | 99 | 1012.0 |
| 20260507043240 | 67 | 107 | 0.0 | 0.0 | 0.12 | 1.23 | 1.23 | 99 | 1011.9 |
| 20260507042737 | 67 | 100 | 0.0 | 0.0 | 0.24 | 1.23 | 1.23 | 99 | 1012.1 |
| 20260507042232 | 67 | 96 | 1.0 | 1.0 | 0.28 | 1.21 | 1.21 | 99 | 1012.8 |
| 20260507041730 | 68 | 108 | 2.0 | 2.0 | 0.38 | 1.20 | 1.20 | 99 | 1012.5 |
| 20260507041226 | 68 | 114 | 1.0 | 1.0 | 0.24 | 1.17 | 1.17 | 99 | 1011.6 |
| 20260507040723 | 68 | 101 | 0.0 | 0.0 | 0.24 | 1.14 | 1.14 | 99 | 1012.2 |
| 20260507040219 | 68 | 142 | 0.0 | 0.0 | 0.24 | 1.12 | 1.12 | 99 | 1011.8 |
| 20260507035715 | 68 | 111 | 0.0 | 0.0 | 0.31 | 1.11 | 1.11 | 99 | 1011.8 |
| 20260507035211 | 69 | 103 | 0.0 | 0.0 | 0.35 | 1.08 | 1.08 | 99 | 1011.9 |
| 20260507034708 | 69 | 108 | 0.0 | 0.0 | 0.35 | 1.06 | 1.06 | 99 | 1012.3 |
| 20260507034206 | 69 | 108 | 0.0 | 0.0 | 0.26 | 1.03 | 1.03 | 99 | 1012.4 |
| 20260507033704 | 69 | 110 | 0.0 | 0.0 | 0.17 | 1.01 | 1.01 | 99 | 1012.2 |
| 20260507033201 | 69 | 117 | 1.0 | 2.0 | 0.17 | 0.99 | 0.99 | 99 | 1012.1 |
| 20260507032658 | 69 | 107 | 1.0 | 1.0 | 0.31 | 0.98 | 0.98 | 99 | 1012.4 |
| 20260507032154 | 69 | 109 | 0.0 | 0.0 | 0.35 | 0.96 | 0.96 | 99 | 1012.7 |
| 20260507031651 | 69 | 111 | 0.0 | 0.0 | 0.50 | 0.92 | 0.92 | 99 | 1013.0 |
| 20260507031147 | 69 | 109 | 0.0 | 0.0 | 0.97 | 0.90 | 0.90 | 99 | 1013.1 |
| 20260507030644 | 69 | 113 | 0.0 | 0.0 | 1.13 | 0.85 | 0.85 | 99 | 1013.1 |
| 20260507030142 | 70 | 108 | 1.0 | 1.0 | 0.71 | 0.71 | 0.71 | 99 | 1013.4 |
| 20260507025639 | 70 | 109 | 1.0 | 1.0 | 0.66 | 0.66 | 0.66 | 99 | 1013.2 |
| 20260507025136 | 70 | 111 | 0.0 | 0.0 | 0.47 | 0.60 | 0.60 | 99 | 1012.8 |
| 20260507024634 | 70 | 111 | 0.0 | 0.0 | 0.26 | 0.55 | 0.55 | 99 | 1012.4 |
| 20260507024131 | 71 | 110 | 0.0 | 0.0 | 0.07 | 0.52 | 0.52 | 99 | 1012.6 |
| 20260507023626 | 71 | 110 | 0.0 | 0.0 | 0.00 | 0.51 | 0.51 | 99 | 1012.4 |
| 20260507023124 | 71 | 111 | 0.0 | 0.0 | 0.00 | 0.51 | 0.51 | 99 | 1012.2 |
| 20260507022621 | 71 | 103 | 0.0 | 0.0 | 0.00 | 0.51 | 0.51 | 99 | 1012.0 |
| 20260507022116 | 71 | 109 | 0.0 | 0.0 | 0.00 | 0.51 | 0.51 | 99 | 1012.1 |
| 20260507021613 | 71 | 110 | 0.0 | 0.0 | 0.00 | 0.51 | 0.51 | 99 | 1012.2 |
| 20260507021108 | 71 | 112 | 0.0 | 0.0 | 0.00 | 0.51 | 0.51 | 99 | 1011.9 |
| 20260507020607 | 71 | 110 | 0.0 | 0.0 | 0.00 | 0.51 | 0.51 | 99 | 1011.7 |
| 20260507015602 | 71 | 146 | 1.0 | 2.0 | 0.00 | 0.51 | 0.51 | 99 | 1012.1 |
| 20260507015058 | 71 | 111 | 0.0 | 0.0 | 0.00 | 0.51 | 0.51 | 99 | 1012.0 |
| 20260507014555 | 71 | 110 | 0.0 | 0.0 | 0.00 | 0.51 | 0.51 | 99 | 1012.1 |
| 20260507014051 | 71 | 112 | 0.0 | 0.0 | 0.00 | 0.51 | 0.51 | 99 | 1012.0 |
| 20260507013548 | 71 | 111 | 0.0 | 0.0 | 0.00 | 0.51 | 0.51 | 99 | 1011.8 |
| 20260507013045 | 71 | 113 | 0.0 | 0.0 | 0.00 | 0.51 | 0.51 | 99 | 1011.6 |
| 20260507012542 | 71 | 113 | 0.0 | 0.0 | 0.00 | 0.51 | 0.51 | 99 | 1011.6 |
| 20260507012038 | 71 | 113 | 0.0 | 0.0 | 0.00 | 0.51 | 0.51 | 99 | 1011.6 |
| 20260507011536 | 71 | 145 | 0.0 | 0.0 | 0.00 | 0.51 | 0.51 | 99 | 1011.9 |
| 20260507011032 | 71 | 115 | 0.0 | 0.0 | 0.00 | 0.51 | 0.51 | 99 | 1011.1 |
| 20260507010526 | 71 | 113 | 0.0 | 0.0 | 0.00 | 0.51 | 0.51 | 99 | 1011.0 |
| 20260507010023 | 71 | 113 | 0.0 | 0.0 | 0.00 | 0.51 | 0.51 | 99 | 1010.8 |
| 20260507005521 | 72 | 112 | 0.0 | 0.0 | 0.00 | 0.51 | 0.51 | 99 | 1011.6 |
| 20260507005017 | 72 | 113 | 0.0 | 0.0 | 0.00 | 0.51 | 0.51 | 99 | 1012.1 |
| 20260507004514 | 71 | 112 | 0.0 | 0.0 | 0.00 | 0.51 | 0.51 | 99 | 1011.7 |
| 20260507004012 | 71 | 113 | 0.0 | 0.0 | 0.00 | 0.51 | 0.51 | 99 | 1012.0 |
| 20260507003507 | 71 | 113 | 0.0 | 0.0 | 0.00 | 0.51 | 0.51 | 99 | 1011.9 |
| 20260507003001 | 71 | 113 | 0.0 | 0.0 | 0.00 | 0.51 | 0.51 | 99 | 1011.8 |
| 20260507002459 | 72 | 112 | 0.0 | 0.0 | 0.00 | 0.51 | 0.51 | 99 | 1011.1 |
| 20260507001955 | 72 | 110 | 0.0 | 0.0 | 0.00 | 0.51 | 0.51 | 99 | 1011.5 |
| 20260507001452 | 72 | 113 | 0.0 | 0.0 | 0.00 | 0.51 | 0.51 | 99 | 1011.8 |
| 20260507000949 | 72 | 113 | 0.0 | 0.0 | 0.00 | 0.51 | 0.51 | 99 | 1011.3 |
| 20260507000445 | 72 | 111 | 0.0 | 0.0 | 0.00 | 0.51 | 0.51 | 99 | 1011.4 |
| 20260506235940 | 72 | 112 | 0.0 | 0.0 | 0.00 | 0.51 | 0.51 | 99 | 1011.4 |
| 20260506235438 | 72 | 112 | 0.0 | 0.0 | 0.00 | 0.51 | 0.51 | 99 | 1011.3 |
| 20260506234933 | 72 | 113 | 0.0 | 0.0 | 0.00 | 0.51 | 0.51 | 99 | 1011.4 |
| 20260506234432 | 72 | 115 | 0.0 | 0.0 | 0.00 | 0.51 | 0.51 | 99 | 1011.6 |
| 20260506233929 | 72 | 113 | 0.0 | 0.0 | 0.00 | 0.51 | 0.51 | 99 | 1011.9 |
| 20260506233425 | 72 | 113 | 0.0 | 0.0 | 0.00 | 0.51 | 0.51 | 99 | 1011.6 |
| 20260506232921 | 72 | 111 | 0.0 | 0.0 | 0.00 | 0.51 | 0.51 | 99 | 1011.9 |
| 20260506232418 | 72 | 114 | 0.0 | 0.0 | 0.00 | 0.51 | 0.51 | 99 | 1012.0 |
| 20260506231914 | 72 | 113 | 0.0 | 0.0 | 0.00 | 0.51 | 0.51 | 99 | 1012.2 |
| 20260506231412 | 72 | 112 | 0.0 | 0.0 | 0.00 | 0.51 | 0.51 | 99 | 1012.1 |
| 20260506230909 | 72 | 113 | 0.0 | 0.0 | 0.00 | 0.51 | 0.51 | 99 | 1011.9 |
| 20260506230405 | 72 | 113 | 0.0 | 0.0 | 0.00 | 0.51 | 0.51 | 99 | 1012.3 |
| 20260506225901 | 72 | 116 | 0.0 | 0.0 | 0.00 | 0.51 | 0.51 | 99 | 1012.3 |
| 20260506225359 | 72 | 114 | 0.0 | 0.0 | 0.00 | 0.51 | 0.51 | 99 | 1012.1 |
| 20260506224856 | 72 | 108 | 0.0 | 0.0 | 0.00 | 0.51 | 0.51 | 99 | 1012.0 |
| 20260506224353 | 72 | 115 | 0.0 | 0.0 | 0.00 | 0.51 | 0.51 | 99 | 1011.7 |
| 20260506223849 | 72 | 110 | 0.0 | 0.0 | 0.00 | 0.51 | 0.51 | 99 | 1012.3 |
| 20260506223345 | 73 | 111 | 0.0 | 0.0 | 0.00 | 0.51 | 0.51 | 99 | 1012.0 |
| 20260506222842 | 72 | 110 | 0.0 | 0.0 | 0.00 | 0.51 | 0.51 | 99 | 1012.1 |
| 20260506222338 | 72 | 110 | 0.0 | 0.0 | 0.00 | 0.51 | 0.51 | 99 | 1012.0 |
| 20260506221836 | 73 | 111 | 0.0 | 0.0 | 0.00 | 0.51 | 0.51 | 99 | 1012.0 |
| 20260506221333 | 72 | 115 | 0.0 | 0.0 | 0.00 | 0.51 | 0.51 | 99 | 1011.7 |
| 20260506220831 | 72 | 111 | 0.0 | 0.0 | 0.00 | 0.51 | 0.51 | 99 | 1012.2 |
| 20260506220326 | 72 | 110 | 0.0 | 0.0 | 0.00 | 0.51 | 0.51 | 99 | 1012.1 |
| 20260506215823 | 72 | 110 | 0.0 | 0.0 | 0.05 | 0.51 | 0.51 | 99 | 1012.2 |
| 20260506215318 | 72 | 110 | 0.0 | 0.0 | 0.05 | 0.51 | 0.51 | 98 | 1011.9 |
| 20260506214814 | 72 | 85 | 0.0 | 0.0 | 0.00 | 0.50 | 0.50 | 98 | 1012.3 |
| 20260506214311 | 72 | 110 | 0.0 | 0.0 | 0.07 | 0.50 | 0.50 | 98 | 1012.6 |
| 20260506213810 | 72 | 115 | 0.0 | 0.0 | 0.19 | 0.50 | 0.50 | 98 | 1012.3 |
| 20260506213306 | 72 | 114 | 0.0 | 0.0 | 0.47 | 0.50 | 0.50 | 98 | 1012.3 |
| 20260506212804 | 72 | 111 | 0.0 | 0.0 | 0.78 | 0.48 | 0.48 | 98 | 1012.3 |
| 20260506212259 | 72 | 107 | 0.0 | 0.0 | 0.50 | 0.42 | 0.42 | 98 | 1012.4 |
| 20260506211754 | 72 | 110 | 0.0 | 0.0 | 0.12 | 0.35 | 0.35 | 98 | 1012.4 |
| 20260506211251 | 72 | 109 | 0.0 | 0.0 | 0.07 | 0.33 | 0.33 | 98 | 1012.4 |
| 20260506210748 | 72 | 111 | 0.0 | 0.0 | 0.31 | 0.33 | 0.33 | 98 | 1012.6 |
| 20260506210245 | 73 | 111 | 0.0 | 0.0 | 1.72 | 0.32 | 0.32 | 97 | 1012.6 |
| 20260506205742 | 73 | 111 | 0.0 | 0.0 | 1.75 | 0.29 | 0.29 | 96 | 1012.4 |
| 20260506205238 | 75 | 110 | 1.0 | 1.0 | 0.35 | 0.06 | 0.06 | 92 | 1012.8 |
| 20260506204735 | 75 | 139 | 1.0 | 1.0 | 0.00 | 0.00 | 0.00 | 89 | 1012.5 |
| 20260506204232 | 75 | 90 | 1.0 | 2.0 | 0.00 | 0.00 | 0.00 | 88 | 1012.2 |
| 20260506203730 | 76 | 162 | 1.0 | 2.0 | 0.00 | 0.00 | 0.00 | 87 | 1012.4 |
| 20260506203227 | 76 | 122 | 0.0 | 1.0 | 0.00 | 0.00 | 0.00 | 86 | 1012.5 |
| 20260506202724 | 76 | 111 | 0.0 | 0.0 | 0.00 | 0.00 | 0.00 | 86 | 1012.4 |
| 20260506202220 | 76 | 121 | 0.0 | 0.0 | 0.00 | 0.00 | 0.00 | 86 | 1012.6 |
| 20260506201712 | 77 | 123 | 0.0 | 1.0 | 0.00 | 0.00 | 0.00 | 85 | 1012.7 |
| 20260506201209 | 77 | 194 | 3.0 | 6.0 | 0.00 | 0.00 | 0.00 | 84 | 1012.5 |
| 20260506200706 | 77 | 137 | 2.0 | 2.0 | 0.00 | 0.00 | 0.00 | 85 | 1012.6 |
| 20260506200203 | 77 | 112 | 0.0 | 1.0 | 0.00 | 0.00 | 0.00 | 86 | 1012.8 |
| 20260506195659 | 77 | 113 | 0.0 | 0.0 | 0.00 | 0.00 | 0.00 | 86 | 1012.8 |
| 20260506195155 | 77 | 113 | 0.0 | 0.0 | 0.00 | 0.00 | 0.00 | 85 | 1013.2 |
| 20260506194653 | 77 | 116 | 0.0 | 0.0 | 0.00 | 0.00 | 0.00 | 85 | 1013.1 |
| 20260506194149 | 77 | 121 | 0.0 | 0.0 | 0.00 | 0.00 | 0.00 | 84 | 1013.5 |
| 20260506193647 | 78 | 153 | 1.0 | 2.0 | 0.00 | 0.00 | 0.00 | 83 | 1013.5 |
| 20260506193144 | 77 | 84 | 0.0 | 1.0 | 0.00 | 0.00 | 0.00 | 84 | 1013.5 |
| 20260506192640 | 77 | 113 | 0.0 | 0.0 | 0.00 | 0.00 | 0.00 | 84 | 1013.8 |
| 20260506192136 | 77 | 105 | 1.0 | 1.0 | 0.00 | 0.00 | 0.00 | 83 | 1013.8 |
| 20260506191633 | 78 | 113 | 0.0 | 0.0 | 0.00 | 0.00 | 0.00 | 83 | 1013.8 |
| 20260506191129 | 78 | 177 | 1.0 | 2.0 | 0.00 | 0.00 | 0.00 | 83 | 1013.8 |
| 20260506190627 | 78 | 164 | 0.0 | 0.0 | 0.00 | 0.00 | 0.00 | 82 | 1013.8 |
| 20260506190124 | 78 | 102 | 2.0 | 3.0 | 0.00 | 0.00 | 0.00 | 81 | 1013.8 |
| 20260506185621 | 78 | 126 | 2.0 | 2.0 | 0.00 | 0.00 | 0.00 | 81 | 1013.9 |
| 20260506185117 | 78 | 215 | 3.0 | 5.0 | 0.00 | 0.00 | 0.00 | 81 | 1013.8 |
| 20260506184614 | 78 | 109 | 0.0 | 0.0 | 0.00 | 0.00 | 0.00 | 81 | 1014.2 |
| 20260506184111 | 78 | 107 | 0.0 | 0.0 | 0.00 | 0.00 | 0.00 | 81 | 1014.1 |
| 20260506183608 | 78 | 116 | 0.0 | 0.0 | 0.00 | 0.00 | 0.00 | 81 | 1014.0 |
| 20260506183104 | 78 | 154 | 1.0 | 2.0 | 0.00 | 0.00 | 0.00 | 81 | 1014.1 |
| 20260506182602 | 78 | 112 | 0.0 | 0.0 | 0.00 | 0.00 | 0.00 | 80 | 1014.1 |
| 20260506182059 | 78 | 144 | 3.0 | 5.0 | 0.00 | 0.00 | 0.00 | 80 | 1014.1 |
| 20260506181557 | 77 | 119 | 1.0 | 1.0 | 0.00 | 0.00 | 0.00 | 81 | 1014.1 |
| 20260506181053 | 77 | 211 | 2.0 | 2.0 | 0.00 | 0.00 | 0.00 | 82 | 1013.9 |
| 20260506180550 | 77 | 178 | 1.0 | 2.0 | 0.00 | 0.00 | 0.00 | 82 | 1014.2 |
| 20260506180047 | 77 | 196 | 3.0 | 6.0 | 0.00 | 0.00 | 0.00 | 81 | 1014.2 |
| 20260506175543 | 78 | 138 | 2.0 | 3.0 | 0.00 | 0.00 | 0.00 | 80 | 1014.3 |
| 20260506175039 | 77 | 154 | 3.0 | 5.0 | 0.00 | 0.00 | 0.00 | 80 | 1014.2 |
| 20260506174538 | 78 | 115 | 1.0 | 1.0 | 0.00 | 0.00 | 0.00 | 80 | 1014.3 |
| 20260506174033 | 78 | 101 | 4.0 | 5.0 | 0.00 | 0.00 | 0.00 | 78 | 1014.3 |
| 20260506173532 | 78 | 102 | 1.0 | 1.0 | 0.00 | 0.00 | 0.00 | 79 | 1014.1 |
| 20260506173028 | 78 | 146 | 5.0 | 7.0 | 0.00 | 0.00 | 0.00 | 77 | 1014.3 |
| 20260506172526 | 78 | 109 | 0.0 | 1.0 | 0.00 | 0.00 | 0.00 | 79 | 1014.5 |
| 20260506172022 | 78 | 124 | 1.0 | 2.0 | 0.00 | 0.00 | 0.00 | 79 | 1014.5 |
| 20260506171519 | 78 | 108 | 1.0 | 1.0 | 0.00 | 0.00 | 0.00 | 79 | 1014.4 |
| 20260506171017 | 78 | 133 | 0.0 | 0.0 | 0.00 | 0.00 | 0.00 | 79 | 1014.6 |
| 20260506170514 | 78 | 136 | 1.0 | 1.0 | 0.00 | 0.00 | 0.00 | 79 | 1014.3 |
| 20260506170006 | 78 | 118 | 0.0 | 0.0 | 0.00 | 0.00 | 0.00 | 78 | 1014.3 |
| 20260506165504 | 77 | 120 | 2.0 | 3.0 | 0.00 | 0.00 | 0.00 | 78 | 1014.3 |
| 20260506165000 | 77 | 101 | 1.0 | 1.0 | 0.00 | 0.00 | 0.00 | 79 | 1014.4 |
| 20260506164456 | 77 | 116 | 1.0 | 2.0 | 0.00 | 0.00 | 0.00 | 79 | 1014.3 |